Regional Weather Roundup
Issued by NWS State College, PA

Home | Current Version | Previous Version | Graphics & Text | Print | Product List | Glossary On
Versions: 1 2 3 4 5 6 7 8 9 10 11 12 13 14 15 16 17 18 19 20 21 22 23 24 25 26 27 28 29 30 31 32 33 34 35 36 37 38 39 40 41 42 43 44 45 46 47 48 49 50
000
ASUS41 KCTP 180003
RWRCTP

REGIONAL WEATHER ROUNDUP
NATIONAL WEATHER SERVICE STATE COLLEGE PA
800 PM EDT THU AUG 17 2017

Note: "fair" indicates few or no clouds below 12,000 feet with no
significant weather and/or obstructions to visibility.

* = STATION THAT DOES NOT REPORT PRECIPITATION /E.G. RAIN...SNOW...ETC/
    THUNDER OR FOG.

PAZ002>004-007>009-013>016-020>023-029>032-180100-
WESTERN PENNSYLVANIA

CITY           SKY/WX    TMP DP  RH WIND       PRES   REMARKS
ERIE           RAIN      73  72  96 W6        29.82S FOG
MEADVILLE      RAIN      75  74  96 SW6       29.86R FOG
FRANKLIN*      CLOUDY    75  70  83 S8        29.86F
NEW CASTLE     MOCLDY    80  72  76 VRB5      29.84F
BEAVER COUNTY  CLEAR     77  70  78 S9        29.86F
BUTLER*        CLOUDY    78  70  76 S10       29.87F
PITTSBURGH INT LGT RAIN  76  72  87 S6        29.87F
PITTSBURGH     CLOUDY    74  71  91 S6        29.87F
INDIANA*       PTCLDY    79  73  83 S5        29.92F
LATROBE        MOCLDY    77  73  88 S5        29.89F
WASHINGTON CO* CLOUDY    73  72  94 S3        29.89S
$$

PAZ004>006-010>012-017>019-024>028-033>037-041-042-045-046-049>053-180100-
CENTRAL PENNSYLVANIA

CITY           SKY/WX    TMP DP  RH WIND       PRES   REMARKS
BRADFORD       CLOUDY    77  69  76 SE6       29.92F
DUBOIS         PTCLDY    78  67  68 SE5       29.91S
CLEARFIELD     PTCLDY    79  70  74 VRB3      29.92F
JOHNSTOWN      CLOUDY    78  69  73 S10       29.96F
ALTOONA        CLOUDY    77  71  82 SE7       29.94F
STATE COLLEGE  CLEAR     79  70  73 CALM      29.93S
WILLIAMSPORT   MOCLDY    82  70  66 S13G18    29.89R
SELINSGROVE    MOCLDY    78  72  81 SE5       29.92R
FT INDIANTOWN  NOT AVBL
CAPITAL CITY   CLOUDY    83  71  67 S13       29.91F
HARRISBURG     CLOUDY    81  74  79 SE9       29.91S
YORK           CLEAR     80  74  81 SE8G17    29.92F
$$

PAZ038>040-043-044-047-048-054-055-060>062-067>071-180100-
EASTERN PENNSYLVANIA

CITY           SKY/WX    TMP DP  RH WIND       PRES   REMARKS
SCRANTON       CLOUDY    79  66  64 S7        29.94F
MOUNT POCONO   PTCLDY    71  66  84 SE6       30.02S
ALLENTOWN      CLOUDY    83  65  54 SE9       29.95S
QUAKERTOWN*    CLOUDY    81  70  69 SE6       29.97S
READING        PTCLDY    81  71  71 S7        29.94R
LANCASTER      PTCLDY    80  75  84 S8        29.94S
COATESVILLE    MOCLDY    77  70  78 S5        29.99R
POTTSTOWN      CLEAR     80  68  66 VRB3      29.97S
BLUE BELL      PTCLDY    77  68  73 S3        29.97S
DOYLESTOWN     MOCLDY    78  69  73 VRB5      29.96S
WILLOW GROVE   NOT AVBL
NORTH PHILA    PTCLDY    83  66  56 S8        29.97S
PHILADELPHIA   MOCLDY    81  67  62 S8        29.96S
$$




USA.gov is the U.S. government's official web portal to all federal, state and local government web resources and services.